THA776 RJOZ-RJOK

Flight info

Callsign THA776
Flight time 0h 51m
Altitude 10997
Route UBE V28 MASKU MYE
Aircraft BE36/L-BDFGLORY/S

Departure

Time 2026-04-18 06:56
Airport Ozuki Airfield (RJOZ)

Arrival

Time 2026-04-18 07:47
Airport Kochi Ryoma Airport (RJOK)
Time Latitude Longitude Altitude Speed Heading
2026-04-18 06:51 34.04864 131.05453 16 ft 0 kts 21°
2026-04-18 06:53 34.04876 131.05453 17 ft 6 kts 339°
2026-04-18 06:54 34.04893 131.05368 16 ft 15 kts 274°
2026-04-18 06:54 34.04971 131.05298 16 ft 18 kts 330°
2026-04-18 06:54 34.05094 131.05217 15 ft 21 kts 331°
2026-04-18 06:54 34.05205 131.05125 14 ft 19 kts 322°
2026-04-18 06:55 34.05314 131.05030 12 ft 20 kts 320°
2026-04-18 06:55 34.05420 131.04939 12 ft 18 kts 318°
2026-04-18 06:55 34.05490 131.04839 11 ft 11 kts 264°
2026-04-18 06:55 34.05456 131.04815 11 ft 7 kts 143°
2026-04-18 06:56 34.05269 131.04900 13 ft 61 kts 160°
2026-04-18 06:56 34.04739 131.05122 158 ft 92 kts 169°
2026-04-18 06:56 34.04030 131.05351 333 ft 121 kts 155°
2026-04-18 06:56 34.03251 131.05745 625 ft 128 kts 156°
2026-04-18 06:57 34.02361 131.06131 756 ft 141 kts 157°
2026-04-18 06:57 34.00790 131.07531 1012 ft 152 kts 105°
2026-04-18 06:57 34.00808 131.08813 1135 ft 155 kts 85°
2026-04-18 06:58 34.00955 131.10110 1271 ft 157 kts 86°
2026-04-18 06:58 34.01065 131.11426 1404 ft 157 kts 88°
2026-04-18 06:58 34.01163 131.12744 1536 ft 159 kts 88°
2026-04-18 06:58 34.01258 131.14077 1660 ft 160 kts 88°
2026-04-18 06:59 34.01354 131.15414 1786 ft 160 kts 88°
2026-04-18 06:59 34.01450 131.16765 1915 ft 163 kts 88°
2026-04-18 06:59 34.01546 131.18138 2039 ft 166 kts 89°
2026-04-18 06:59 34.01642 131.19454 2488 ft 146 kts 88°
2026-04-18 07:00 34.01721 131.20567 3140 ft 120 kts 89°
2026-04-18 07:00 34.01791 131.21478 3702 ft 100 kts 89°
2026-04-18 07:00 34.01846 131.22301 4063 ft 99 kts 88°
2026-04-18 07:00 34.01904 131.23126 4399 ft 99 kts 87°
2026-04-18 07:01 34.01961 131.23948 4751 ft 99 kts 86°
2026-04-18 07:01 34.02013 131.24824 4980 ft 108 kts 87°
2026-04-18 07:01 34.02081 131.25742 5171 ft 111 kts 86°
2026-04-18 07:01 34.02143 131.26649 5464 ft 106 kts 86°
2026-04-18 07:02 34.02213 131.27548 5766 ft 109 kts 86°
2026-04-18 07:02 34.02275 131.28463 6107 ft 109 kts 84°
2026-04-18 07:02 34.02340 131.29385 6396 ft 111 kts 85°
2026-04-18 07:02 34.02404 131.30319 6672 ft 112 kts 86°
2026-04-18 07:03 34.02469 131.31255 6943 ft 113 kts 85°
2026-04-18 07:03 34.02537 131.32198 7200 ft 113 kts 85°
2026-04-18 07:03 34.02599 131.33143 7476 ft 114 kts 85°
2026-04-18 07:03 34.02665 131.34106 7759 ft 115 kts 85°
2026-04-18 07:04 34.02733 131.35078 7988 ft 120 kts 84°
2026-04-18 07:04 34.02805 131.36111 8126 ft 127 kts 84°
2026-04-18 07:04 34.02879 131.37199 8261 ft 133 kts 84°
2026-04-18 07:04 34.02957 131.38329 8397 ft 137 kts 83°
2026-04-18 07:05 34.03037 131.39490 8528 ft 140 kts 84°
2026-04-18 07:05 34.03119 131.40676 8659 ft 143 kts 84°
2026-04-18 07:05 34.03203 131.41899 8793 ft 146 kts 84°
2026-04-18 07:05 34.03287 131.43121 8923 ft 147 kts 84°
2026-04-18 07:06 34.03372 131.44352 9053 ft 148 kts 83°
2026-04-18 07:06 34.03456 131.45585 9182 ft 148 kts 84°
2026-04-18 07:06 34.03540 131.46822 9313 ft 148 kts 84°
2026-04-18 07:06 34.03625 131.48063 9441 ft 149 kts 84°
2026-04-18 07:07 34.03710 131.49305 9572 ft 149 kts 83°
2026-04-18 07:07 34.03795 131.50553 9702 ft 149 kts 83°
2026-04-18 07:07 34.03880 131.51805 9834 ft 150 kts 82°
2026-04-18 07:07 34.03966 131.53068 9959 ft 151 kts 83°
2026-04-18 07:08 34.04051 131.54340 10077 ft 152 kts 84°
2026-04-18 07:08 34.04137 131.55611 10196 ft 152 kts 83°
2026-04-18 07:08 34.04223 131.56882 10309 ft 152 kts 82°
2026-04-18 07:08 34.04308 131.58150 10427 ft 152 kts 83°
2026-04-18 07:09 34.04394 131.59418 10545 ft 152 kts 83°
2026-04-18 07:09 34.04479 131.60684 10666 ft 152 kts 83°
2026-04-18 07:09 34.04564 131.61950 10782 ft 151 kts 83°
2026-04-18 07:09 34.04649 131.63211 10905 ft 151 kts 83°
2026-04-18 07:10 34.04706 131.64047 10986 ft 152 kts 83°
2026-04-18 07:10 34.04790 131.65344 11013 ft 160 kts 84°
2026-04-18 07:10 34.04551 131.66678 11025 ft 169 kts 114°
2026-04-18 07:10 34.03443 131.68036 11027 ft 175 kts 154°
2026-04-18 07:11 34.02676 131.68325 11029 ft 176 kts 173°
2026-04-18 07:11 34.01449 131.68386 11025 ft 178 kts 167°
2026-04-18 07:11 34.00462 131.69232 11023 ft 178 kts 120°
2026-04-18 07:11 34.00237 131.70642 11025 ft 172 kts 77°
2026-04-18 07:12 34.00216 131.72074 11025 ft 176 kts 108°
2026-04-18 07:12 33.99793 131.73462 11027 ft 177 kts 105°
2026-04-18 07:12 33.99497 131.74900 11027 ft 177 kts 101°
2026-04-18 07:12 33.99249 131.76356 11026 ft 178 kts 98°
2026-04-18 07:13 33.99004 131.77821 11028 ft 178 kts 99°
2026-04-18 07:13 33.98751 131.79300 11075 ft 176 kts 100°
2026-04-18 07:13 33.98508 131.80717 11212 ft 168 kts 99°
2026-04-18 07:13 33.98284 131.82029 11557 ft 148 kts 99°
2026-04-18 07:14 33.98087 131.83189 11841 ft 140 kts 99°
2026-04-18 07:14 33.97888 131.84347 11973 ft 141 kts 99°
2026-04-18 07:14 33.97690 131.85506 12122 ft 142 kts 99°
2026-04-18 07:14 33.97489 131.86670 12276 ft 142 kts 99°
2026-04-18 07:15 33.97287 131.87839 12418 ft 143 kts 99°
2026-04-18 07:15 33.97096 131.88960 12689 ft 132 kts 99°
2026-04-18 07:15 33.96911 131.90043 12833 ft 133 kts 99°
2026-04-18 07:15 33.96722 131.91135 12976 ft 133 kts 99°
2026-04-18 07:16 33.96533 131.92231 13120 ft 134 kts 99°
2026-04-18 07:16 33.96344 131.93329 13263 ft 134 kts 99°
2026-04-18 07:16 33.96153 131.94433 13399 ft 135 kts 99°
2026-04-18 07:16 33.95955 131.95579 13422 ft 145 kts 99°
2026-04-18 07:17 33.95747 131.96782 13522 ft 147 kts 99°
2026-04-18 07:17 33.95538 131.97994 13655 ft 148 kts 99°
2026-04-18 07:17 33.95326 131.99212 13760 ft 150 kts 99°
2026-04-18 07:17 33.95113 132.00449 13857 ft 151 kts 100°
2026-04-18 07:18 33.94899 132.01690 13957 ft 151 kts 100°
2026-04-18 07:18 33.94678 132.02964 13927 ft 162 kts 100°
2026-04-18 07:18 33.94437 132.04348 13824 ft 175 kts 100°
2026-04-18 07:18 33.94182 132.05815 13709 ft 183 kts 100°
2026-04-18 07:19 33.93918 132.07339 13603 ft 188 kts 100°
2026-04-18 07:19 33.93647 132.08897 13491 ft 191 kts 100°
2026-04-18 07:19 33.93373 132.10477 13368 ft 194 kts 100°
2026-04-18 07:19 33.93096 132.12070 13243 ft 194 kts 100°
2026-04-18 07:20 33.92818 132.13664 13118 ft 195 kts 100°
2026-04-18 07:20 33.92539 132.15266 12992 ft 196 kts 100°
2026-04-18 07:20 33.92515 132.15401 12981 ft 196 kts 100°
2026-04-18 07:21 33.92427 132.15903 12938 ft 196 kts 100°
2026-04-18 07:21 33.92149 132.17507 12812 ft 196 kts 100°
2026-04-18 07:21 33.91867 132.19114 12685 ft 197 kts 100°
2026-04-18 07:22 33.91585 132.20727 12556 ft 197 kts 100°
2026-04-18 07:22 33.91303 132.22348 12434 ft 199 kts 100°
2026-04-18 07:22 33.91018 132.23976 12308 ft 199 kts 100°
2026-04-18 07:22 33.90734 132.25608 12179 ft 199 kts 100°
2026-04-18 07:23 33.90443 132.27261 11932 ft 203 kts 100°
2026-04-18 07:23 33.90145 132.28937 11687 ft 206 kts 100°
2026-04-18 07:23 33.89850 132.30622 11484 ft 205 kts 99°
2026-04-18 07:23 33.89555 132.32306 11347 ft 205 kts 100°
2026-04-18 07:24 33.89260 132.33986 11229 ft 205 kts 100°
2026-04-18 07:24 33.88965 132.35663 11106 ft 205 kts 99°
2026-04-18 07:24 33.88670 132.37334 10992 ft 204 kts 100°
2026-04-18 07:24 33.88377 132.38999 10861 ft 203 kts 100°
2026-04-18 07:25 33.88085 132.40654 10732 ft 201 kts 99°
2026-04-18 07:25 33.87797 132.42284 10612 ft 198 kts 99°
2026-04-18 07:25 33.87512 132.43897 10491 ft 196 kts 99°
2026-04-18 07:25 33.87229 132.45492 10369 ft 193 kts 99°
2026-04-18 07:26 33.86950 132.47072 10212 ft 193 kts 99°
2026-04-18 07:26 33.86670 132.48659 10047 ft 194 kts 99°
2026-04-18 07:26 33.86388 132.50249 9884 ft 195 kts 99°
2026-04-18 07:26 33.86104 132.51847 9744 ft 195 kts 99°
2026-04-18 07:27 33.85821 132.53440 9611 ft 194 kts 99°
2026-04-18 07:27 33.85538 132.55028 9480 ft 194 kts 99°
2026-04-18 07:27 33.85256 132.56614 9347 ft 193 kts 99°
2026-04-18 07:27 33.84977 132.58184 9216 ft 191 kts 99°
2026-04-18 07:28 33.84698 132.59748 9090 ft 191 kts 99°
2026-04-18 07:28 33.84419 132.61312 8966 ft 191 kts 99°
2026-04-18 07:28 33.84140 132.62880 8833 ft 191 kts 99°
2026-04-18 07:28 33.83861 132.64440 8703 ft 190 kts 99°
2026-04-18 07:29 33.83585 132.65988 8577 ft 189 kts 99°
2026-04-18 07:29 33.83309 132.67530 8449 ft 188 kts 99°
2026-04-18 07:29 33.83029 132.69088 8322 ft 188 kts 101°
2026-04-18 07:29 33.82631 132.70569 8200 ft 189 kts 106°
2026-04-18 07:30 33.82203 132.72065 8077 ft 189 kts 105°
2026-04-18 07:30 33.81783 132.73566 7958 ft 191 kts 105°
2026-04-18 07:30 33.81354 132.75089 7844 ft 194 kts 107°
2026-04-18 07:30 33.80915 132.76633 7722 ft 196 kts 106°
2026-04-18 07:31 33.80476 132.78192 7596 ft 197 kts 106°
2026-04-18 07:31 33.80041 132.79742 7472 ft 195 kts 106°
2026-04-18 07:31 33.79600 132.81296 7347 ft 192 kts 107°
2026-04-18 07:31 33.79177 132.82794 7227 ft 191 kts 107°
2026-04-18 07:32 33.78747 132.84315 7107 ft 190 kts 107°
2026-04-18 07:32 33.78324 132.85810 6987 ft 188 kts 107°
2026-04-18 07:32 33.77903 132.87298 6870 ft 188 kts 107°
2026-04-18 07:32 33.77482 132.88783 6753 ft 188 kts 108°
2026-04-18 07:33 33.77060 132.90271 6635 ft 187 kts 107°
2026-04-18 07:33 33.76639 132.91756 6521 ft 188 kts 107°
2026-04-18 07:33 33.76217 132.93245 6400 ft 188 kts 108°
2026-04-18 07:33 33.75795 132.94729 6277 ft 187 kts 108°
2026-04-18 07:34 33.75375 132.96205 6154 ft 187 kts 108°
2026-04-18 07:34 33.74953 132.97696 6043 ft 189 kts 108°
2026-04-18 07:34 33.74533 132.99172 6018 ft 184 kts 108°
2026-04-18 07:34 33.74123 133.00616 6019 ft 181 kts 107°
2026-04-18 07:35 33.73717 133.02040 6018 ft 180 kts 108°
2026-04-18 07:35 33.73313 133.03460 6010 ft 179 kts 108°
2026-04-18 07:35 33.72912 133.04868 6009 ft 178 kts 108°
2026-04-18 07:35 33.72515 133.06265 6011 ft 176 kts 108°
2026-04-18 07:36 33.72115 133.07660 6009 ft 175 kts 108°
2026-04-18 07:36 33.71721 133.09043 6012 ft 176 kts 108°
2026-04-18 07:36 33.71325 133.10440 6012 ft 177 kts 108°
2026-04-18 07:36 33.70924 133.11839 6012 ft 177 kts 108°
2026-04-18 07:37 33.70525 133.13237 6013 ft 177 kts 108°
2026-04-18 07:37 33.70122 133.14643 5947 ft 181 kts 108°
2026-04-18 07:37 33.69710 133.16092 5825 ft 186 kts 108°
2026-04-18 07:37 33.69283 133.17571 5702 ft 189 kts 109°
2026-04-18 07:38 33.68853 133.19065 5581 ft 190 kts 108°
2026-04-18 07:38 33.68429 133.20558 5528 ft 187 kts 108°
2026-04-18 07:38 33.68011 133.22023 5524 ft 184 kts 108°
2026-04-18 07:38 33.67596 133.23467 5524 ft 182 kts 108°
2026-04-18 07:39 33.67183 133.24903 5523 ft 182 kts 108°
2026-04-18 07:39 33.66772 133.26338 5519 ft 181 kts 108°
2026-04-18 07:39 33.66360 133.27769 5515 ft 181 kts 108°
2026-04-18 07:39 33.65950 133.29195 5518 ft 181 kts 108°
2026-04-18 07:40 33.65540 133.30627 5515 ft 182 kts 108°
2026-04-18 07:40 33.65125 133.32068 5422 ft 185 kts 108°
2026-04-18 07:40 33.64699 133.33545 5300 ft 189 kts 108°
2026-04-18 07:40 33.64267 133.35050 5182 ft 192 kts 108°
2026-04-18 07:41 33.63828 133.36570 5054 ft 194 kts 108°
2026-04-18 07:41 33.63388 133.38098 4936 ft 194 kts 108°
2026-04-18 07:41 33.62948 133.39626 4813 ft 194 kts 108°
2026-04-18 07:41 33.62506 133.41158 4687 ft 195 kts 109°
2026-04-18 07:42 33.62061 133.42699 4559 ft 195 kts 109°
2026-04-18 07:42 33.61615 133.44239 4431 ft 196 kts 109°
2026-04-18 07:42 33.61171 133.45781 4304 ft 195 kts 109°
2026-04-18 07:42 33.60726 133.47319 4177 ft 195 kts 109°
2026-04-18 07:43 33.60294 133.48810 4049 ft 181 kts 109°
2026-04-18 07:43 33.60029 133.49730 3960 ft 172 kts 109°
2026-04-18 07:43 33.59654 133.51057 3826 ft 164 kts 106°
2026-04-18 07:43 33.59402 133.52370 3694 ft 159 kts 102°
2026-04-18 07:44 33.59180 133.53657 3561 ft 157 kts 102°
2026-04-18 07:44 33.58963 133.54930 3433 ft 155 kts 102°
2026-04-18 07:44 33.58750 133.56184 3305 ft 150 kts 102°
2026-04-18 07:44 33.58553 133.57387 3170 ft 144 kts 102°
2026-04-18 07:45 33.58371 133.58552 3026 ft 138 kts 101°
2026-04-18 07:45 33.58249 133.59632 2870 ft 123 kts 99°
2026-04-18 07:45 33.58114 133.60648 2438 ft 128 kts 98°
2026-04-18 07:45 33.57928 133.61676 2126 ft 122 kts 108°
2026-04-18 07:46 33.57617 133.62601 1825 ft 119 kts 120°
2026-04-18 07:46 33.57187 133.63408 1592 ft 102 kts 127°
2026-04-18 07:46 33.56775 133.64075 1158 ft 104 kts 133°
2026-04-18 07:46 33.56270 133.64711 819 ft 102 kts 137°
2026-04-18 07:47 33.55790 133.65308 493 ft 98 kts 134°
2026-04-18 07:47 33.55359 133.65929 128 ft 97 kts 133°
2026-04-18 07:47 33.54979 133.66434 37 ft 62 kts 134°
2026-04-18 07:47 33.54747 133.66738 29 ft 40 kts 135°
2026-04-18 07:48 33.54597 133.66964 27 ft 30 kts 133°
2026-04-18 07:48 33.54477 133.67122 26 ft 19 kts 114°
2026-04-18 07:48 33.54530 133.67236 27 ft 15 kts 45°
2026-04-18 07:48 33.54563 133.67298 29 ft 6 kts 137°
2026-04-18 07:49 33.54576 133.67351 26 ft 10 kts 39°
2026-04-18 07:49 33.54623 133.67399 28 ft 8 kts 41°
2026-04-18 07:49 33.54615 133.67429 26 ft 2 kts 153°
2026-04-18 07:49 33.54611 133.67433 26 ft 0 kts 122°